Location: Heiligenberg
(48.5381°N, 7.3897°E)
Time: 03:04:45
(UTC+00:00)

Cosmos 2251 Rocket - Pass Details

Date: 26 May 2022
Orbit: 764 x 791 km, 74.0° (Epoch: 26 June)

Event Time Altitude Azimuth Distance (km) Brightness Sun altitude
Rises 01:56:30 0° 337° (NNW) 3,248 7.2 -12.8°
Reaches altitude 10° 01:58:53 10° 338° (NNW) 2,320 6.4 -12.6°
Maximum altitude 02:04:10 82° 66° (ENE) 787 3.6 -12.1°
Drops below altitude 10° 02:09:27 10° 155° (SSE) 2,320 5.7 -11.5°
Sets 02:11:50 0° 156° (SSE) 3,248 6.5 -11.3°
